Temp
60 60 60 60 60 60 60 60 60 60 60 60 61 60 60 60 60 77 74 70 72 69 70 82 85 84 85 82 88 90 74 71 76 78 80 92 89 97 101 97 99 100 99 100 107
60 60 60 60 59 59 59 59 60 60 60 60 60 60 60 60 69 78 70 69 69 70 79 80 80 84 79 80 83 79 74 75 85 87 85 89 89 91 93 92 93 96 99 101 105
59 59 59 59 59 59 59 59 60 60 60 60 60 60 60 63 73 75 70 71 69 71 81 83 82 81 78 83 81 80 73 81 86 89 90 86 87 93 91 88 93 92 96 99 101
59 59 59 59 59 59 59 59 59 60 60 60 60 60 60 69 64 79 70 70 71 78 81 80 79 74 74 75 83 76 81 82 84 87 88 83 86 85 90 92 99 101 99 99 98
58 58 58 58 58 58 58 59 59 59 59 59 59 60 66 72 73 81 71 74 82 81 78 77 75 76 72 77 80 77 80 83 85 85 86 87 80 82 86 94 100 101 99 96 96
58 58 58 58 58 58 58 58 58 58 58 59 60 60 67 67 82 84 83 82 82 80 79 79 76 80 75 76 76 81 81 81 84 84 85 81 81 82 86 92 94 95 96 97 98
57 57 57 57 57 57 57 57 57 57 58 60 61 68 72 72 84 86 85 83 82 79 74 80 79 74 76 71 79 78 72 77 80 82 81 83 74 74 85 90 90 92 95 95 96
57 57 57 57 57 57 57 57 57 57 59 61 61 72 69 83 88 84 86 82 85 84 79 80 80 74 72 77 73 69 71 65 76 79 80 78 68 79 86 85 86 89 92 94 95
57 56 56 57 57 57 57 56 57 60 61 62 66 70 69 77 78 83 83 76 79 81 81 80 76 70 72 65 62 66 59 65 70 80 79 76 70 80 85 84 84 87 90 92 93
57 56 56 56 56 56 56 55 62 61 65 73 75 67 75 71 78 80 83 80 75 74 73 72 71 65 68 64 54 60 63 66 65 75 79 74 73 79 83 83 81 84 88 91 92
56 56 56 56 56 55 59 73 68 65 73 69 69 68 72 78 81 77 80 76 75 71 63 69 63 59 64 67 67 65 63 62 69 78 75 72 74 77 82 81 80 83 87 89 90
56 56 56 56 56 55 62 72 68 71 60 73 72 71 74 76 66 73 78 68 67 60 66 63 58 66 67 66 63 62 59 60 66 72 72 69 69 76 80 81 81 81 84 87 89
55 55 55 56 56 60 74 71 78 76 61 67 70 69 71 73 67 68 73 69 64 60 61 57 62 67 65 62 59 60 57 57 58 66 69 67 63 68 78 81 83 83 84 87 87
55 55 55 55 55 79 72 76 79 75 55 59 63 68 71 72 64 74 76 69 64 58 61 60 66 62 61 59 61 54 63 62 59 57 51 66 52 64 71 74 78 81 83 83 85
55 55 54 52 71 75 73 79 78 70 42 60 64 77 72 66 67 68 76 69 58 59 60 56 59 60 58 59 63 57 64 61 60 57 56 57 54 61 71 70 74 78 82 84 85
55 55 54 62 73 76 79 76 71 52 39 56 63 62 63 67 66 69 68 73 70 61 62 61 66 62 61 63 63 65 60 60 59 56 46 54 55 57 64 69 75 81 84 85 87
54 54 56 74 72 80 78 70 51 45 60 55 56 62 61 60 60 62 60 59 56 47 49 56 57 58 63 55 62 60 53 43 41 42 42 56 52 56 68 74 77 79 83 86 88
53 52 60 76 80 77 72 60 40 54 55 61 59 59 56 58 58 59 58 55 60 54 50 42 40 53 58 56 53 53 53 44 33 36 42 55 46 56 71 77 81 81 82 84 86
52 69 72 76 76 75 63 50 53 54 57 54 56 53 55 59 58 58 56 55 57 58 44 42 42 58 60 61 60 53 48 55 44 46 39 45 51 63 71 74 77 78 81 82 84
60 70 73 75 75 69 58 49 55 59 58 57 47 52 48 53 53 54 54 58 56 61 61 51 41 54 58 61 62 56 57 38 46 35 33 45 49 52 63 67 75 77 78 79 82
62 63 69 76 73 62 49 56 57 61 60 53 51 49 51 49 51 50 51 58 58 58 60 56 49 48 56 53 50 50 45 52 44 43 38 38 44 64 66 71 72 77 77 79 81
62 58 72 75 57 58 54 55 52 57 60 56 56 52 49 50 49 50 49 54 60 59 49 56 48 41 49 60 61 58 50 49 38 34 44 45 46 64 63 78 76 75 76 81 82
58 59 72 69 47 52 59 58 58 56 57 54 50 53 54 48 41 49 53 60 60 54 48 47 47 37 45 53 51 46 51 52 50 43 37 33 38 57 71 72 73 72 74 78 81
59 54 65 63 60 53 53 52 52 60 57 56 52 52 51 49 52 46 49 56 54 49 51 49 44 41 37 45 37 35 46 53 49 40 42 43 44 40 52 68 73 73 74 77 80
65 56 54 52 54 54 51 52 51 51 57 57 51 50 47 41 47 46 51 52 54 50 45 42 36 44 48 52 51 51 53 54 51 51 45 49 49 49 51 56 67 73 74 76 79
55 52 56 52 56 50 48 48 49 53 52 50 49 52 48 43 45 44 47 46 41 47 42 46 37 44 43 51 53 50 54 55 55 55 55 54 53 63 66 69 70 71 73 73 77
50 49 48 47 54 52 48 46 46 48 51 55 52 49 50 53 57 59 57 57 53 41 38 41 43 40 37 49 48 43 53 55 56 59 58 52 60 67 66 67 69 70 72 74 76
MSLP
1021.70 1021.32 1020.94 1020.49 1020.06 1019.65 1019.20 1018.69 1018.29 1017.89 1017.49 1017.11 1016.66 1016.28 1015.97 1015.54 1014.59 1012.37 1011.96 1012.74 1012.26 1012.27 1011.92 1010.40 1009.36 1008.75 1008.22 1007.14 1006.16 1005.40 1004.12 1001.81 1000.79 1000.00 999.35 998.89 998.62 998.40 997.96 997.48 997.04 997.44 997.29 997.35 996.68
1021.72 1021.30 1020.86 1020.43 1019.98 1019.52 1019.03 1018.62 1018.24 1017.78 1017.32 1016.86 1016.46 1016.03 1015.63 1015.27 1013.75 1011.01 1012.80 1012.70 1012.68 1012.42 1010.86 1009.35 1008.22 1007.71 1007.17 1006.35 1005.55 1004.68 1002.62 1001.13 1000.60 999.86 999.24 999.13 999.20 998.71 998.08 997.62 997.55 997.52 997.91 998.41 997.96
1021.70 1021.27 1020.82 1020.36 1019.92 1019.47 1019.03 1018.58 1018.10 1017.63 1017.20 1016.77 1016.26 1015.76 1015.32 1014.98 1011.85 1010.75 1012.44 1012.56 1012.63 1012.20 1010.71 1009.40 1008.84 1007.66 1006.21 1005.35 1004.41 1003.80 1001.48 1001.32 1000.14 1000.04 999.63 999.45 999.64 999.16 997.95 997.32 997.43 997.50 998.19 998.36 998.13
1021.56 1021.15 1020.73 1020.28 1019.80 1019.32 1018.85 1018.38 1017.87 1017.37 1016.97 1016.61 1016.19 1015.76 1015.14 1013.96 1010.69 1011.04 1012.42 1012.47 1012.10 1011.27 1009.88 1008.75 1008.10 1007.17 1005.73 1004.16 1003.76 1002.78 1001.85 1001.53 1000.89 1000.35 999.96 999.95 1000.45 999.66 998.58 997.83 997.44 997.04 997.68 998.47 998.60
1021.55 1021.12 1020.66 1020.19 1019.71 1019.17 1018.64 1018.18 1017.71 1017.20 1016.73 1016.33 1015.90 1015.52 1014.68 1011.63 1010.40 1011.20 1011.83 1011.39 1010.60 1010.06 1009.16 1008.45 1007.59 1006.46 1004.91 1004.25 1003.51 1001.88 1001.44 1001.19 1000.98 1000.72 1000.47 1000.26 1000.29 1000.19 999.46 998.43 997.89 997.29 997.47 998.36 999.12
1021.53 1021.02 1020.54 1020.00 1019.51 1018.99 1018.44 1017.97 1017.56 1017.05 1016.56 1016.16 1015.82 1015.58 1013.90 1010.48 1010.72 1010.62 1010.65 1010.36 1009.70 1009.37 1008.72 1008.17 1007.52 1006.69 1005.36 1004.11 1003.13 1002.18 1001.44 1000.95 1000.60 1000.31 1000.31 1000.04 999.70 1000.43 998.84 999.22 998.25 998.00 997.67 998.03 998.47
1021.43 1020.94 1020.41 1019.82 1019.27 1018.73 1018.18 1017.60 1017.11 1016.62 1016.14 1015.81 1015.45 1014.72 1012.19 1010.42 1010.53 1010.16 1009.70 1009.54 1009.58 1009.60 1009.05 1008.47 1008.23 1007.64 1006.00 1004.94 1004.10 1003.00 1001.91 1001.04 999.97 999.85 999.64 1000.13 999.47 999.33 999.14 999.03 998.31 998.04 997.73 998.01 998.34
1021.14 1020.68 1020.14 1019.54 1018.95 1018.41 1017.79 1017.25 1016.73 1016.22 1015.71 1015.52 1015.43 1013.94 1010.66 1010.43 1010.27 1009.72 1009.60 1009.19 1008.89 1008.89 1009.13 1009.04 1008.65 1007.79 1006.66 1005.76 1004.35 1003.42 1002.20 1000.29 998.43 1000.12 999.39 1000.16 997.74 997.80 998.72 998.54 998.01 997.83 997.36 997.21 997.53
1020.91 1020.41 1019.88 1019.25 1018.58 1017.98 1017.34 1016.71 1016.07 1015.58 1015.41 1015.40 1014.83 1013.05 1009.66 1010.43 1009.84 1009.94 1009.67 1009.26 1009.07 1008.52 1008.22 1008.62 1008.53 1007.40 1006.35 1005.36 1004.22 1002.80 1000.54 999.57 998.58 998.97 998.83 999.22 996.99 997.18 998.01 997.61 997.19 996.98 996.89 996.79 996.76
1020.73 1020.11 1019.59 1019.03 1018.29 1017.59 1016.89 1016.08 1015.60 1015.55 1015.12 1014.27 1012.98 1012.03 1009.78 1009.49 1009.68 1009.79 1009.39 1009.12 1008.71 1008.39 1007.87 1007.64 1007.22 1006.38 1005.26 1004.48 1002.16 1001.19 1000.56 999.46 998.28 998.10 997.44 997.70 996.55 996.41 996.82 996.90 996.91 996.83 996.11 995.60 995.71
1020.65 1019.96 1019.33 1018.76 1018.05 1017.32 1016.48 1014.55 1014.78 1013.98 1012.56 1011.32 1010.77 1010.35 1009.65 1009.71 1009.69 1009.27 1008.90 1008.93 1008.10 1007.83 1006.77 1006.30 1005.87 1004.68 1003.89 1003.34 1002.74 1002.25 1001.30 999.52 998.16 997.34 997.17 996.83 995.81 995.20 995.70 996.17 996.30 995.90 995.32 995.27 995.22
1020.52 1019.73 1018.95 1018.34 1017.78 1017.04 1016.35 1013.58 1013.93 1013.76 1012.17 1010.70 1010.44 1010.47 1010.27 1010.13 1009.55 1008.80 1009.22 1008.70 1007.96 1007.23 1006.70 1006.09 1004.79 1004.55 1004.51 1004.23 1003.62 1003.04 1001.95 1000.44 999.88 999.06 998.36 997.04 996.22 995.07 995.05 994.90 995.23 995.58 995.23 994.71 994.64
1020.26 1019.45 1018.65 1017.91 1017.41 1016.46 1014.19 1013.90 1013.70 1013.51 1012.03 1009.77 1010.01 1009.82 1009.57 1009.86 1009.05 1008.77 1008.93 1008.63 1007.97 1007.25 1006.55 1005.77 1005.05 1004.88 1004.40 1004.07 1003.79 1003.14 1002.48 1001.67 1000.84 1000.20 999.36 998.20 996.69 995.86 994.91 994.72 994.70 994.81 994.96 994.82 994.59
1019.92 1019.09 1018.29 1017.61 1017.43 1014.09 1013.41 1013.91 1013.53 1013.59 1011.21 1009.62 1009.51 1009.33 1009.59 1009.20 1008.54 1009.01 1008.69 1008.61 1008.05 1007.16 1006.62 1005.87 1005.36 1004.91 1004.41 1003.74 1003.65 1002.64 1002.76 1002.15 1001.56 1001.19 999.60 998.92 996.04 995.23 994.80 994.32 994.33 994.08 994.01 994.13 994.27
1019.36 1018.50 1017.84 1017.75 1015.27 1013.39 1014.01 1013.70 1013.62 1013.43 1010.21 1009.66 1008.97 1009.50 1009.30 1008.82 1008.48 1008.22 1008.45 1008.50 1007.77 1007.22 1006.99 1005.58 1005.12 1004.53 1003.89 1003.39 1003.30 1002.69 1002.77 1002.40 1001.86 1001.07 1000.32 999.12 997.08 994.55 994.53 993.40 993.27 993.20 993.31 993.41 993.61
1019.06 1018.24 1017.62 1016.70 1015.07 1014.10 1013.94 1014.00 1013.68 1011.81 1009.26 1008.99 1009.15 1008.87 1008.34 1007.83 1007.51 1007.64 1007.60 1007.51 1007.08 1006.58 1006.22 1005.26 1005.19 1005.03 1004.15 1003.72 1003.35 1003.17 1002.89 1002.57 1001.93 1001.15 999.43 998.62 997.30 994.80 994.09 993.47 992.59 992.07 991.89 991.94 992.27
1018.64 1018.04 1017.59 1015.30 1013.80 1014.05 1013.91 1013.25 1011.80 1009.75 1009.63 1008.80 1008.81 1008.73 1008.31 1007.34 1007.59 1007.17 1007.16 1006.52 1005.91 1006.04 1005.88 1005.66 1005.07 1006.05 1004.72 1003.72 1002.84 1002.97 1002.99 1002.26 1001.36 1000.44 998.78 998.68 997.06 995.46 994.10 993.57 992.87 991.82 991.49 991.24 991.27
1018.04 1017.66 1016.23 1014.76 1014.30 1014.30 1013.76 1012.20 1010.88 1009.37 1009.33 1009.54 1009.43 1008.93 1007.75 1007.55 1007.43 1007.26 1006.69 1006.01 1006.11 1007.00 1006.47 1006.48 1005.83 1005.56 1005.23 1004.58 1003.21 1003.07 1002.75 1002.41 1001.67 1000.61 999.34 998.26 996.49 995.26 994.49 992.72 991.86 991.90 991.66 991.56 991.10
1017.27 1015.81 1014.82 1014.36 1014.65 1014.39 1013.38 1011.09 1009.54 1009.80 1010.44 1010.38 1009.86 1008.67 1007.61 1007.36 1007.55 1007.13 1006.46 1006.42 1006.84 1007.07 1007.52 1007.16 1006.25 1005.75 1004.97 1004.55 1004.28 1003.46 1002.82 1003.62 1003.84 1002.76 1000.95 999.44 998.01 995.45 994.18 992.69 992.23 992.03 991.27 991.14 991.14
1017.58 1014.73 1013.34 1014.45 1014.51 1014.13 1012.68 1011.06 1010.40 1010.90 1011.22 1010.98 1010.30 1009.88 1008.85 1008.37 1008.16 1007.30 1007.02 1006.88 1007.09 1007.08 1007.28 1007.32 1006.35 1005.83 1004.63 1004.45 1003.44 1003.33 1004.30 1004.56 1003.51 1002.49 1000.63 998.66 996.18 994.05 992.85 992.51 991.76 991.28 991.25 991.67 991.87
1016.92 1014.10 1014.19 1014.27 1014.28 1013.33 1012.08 1010.63 1010.95 1011.31 1011.86 1011.44 1010.68 1010.44 1009.91 1009.53 1009.23 1008.54 1007.90 1007.38 1007.67 1007.60 1007.79 1007.32 1006.90 1005.68 1004.58 1003.34 1003.45 1003.85 1004.39 1003.39 1004.57 1004.07 1001.05 998.28 996.22 992.99 991.70 991.66 991.72 991.11 991.86 992.06 991.64
1016.59 1013.58 1013.93 1014.01 1013.38 1012.72 1011.69 1011.88 1012.39 1011.68 1011.81 1011.67 1011.57 1011.26 1010.96 1010.51 1009.80 1009.05 1008.28 1007.84 1008.47 1008.43 1008.44 1007.92 1007.40 1006.19 1004.29 1002.68 1002.96 1002.86 1003.64 1004.04 1003.68 1003.60 1002.14 999.80 996.21 994.87 993.46 988.35 991.52 991.96 992.71 992.24 991.70
1016.81 1014.82 1013.83 1013.91 1013.15 1012.60 1012.11 1011.90 1011.76 1011.97 1011.67 1011.70 1011.96 1011.93 1011.84 1011.50 1010.94 1009.71 1008.75 1008.70 1008.97 1009.73 1009.71 1010.34 1007.95 1006.48 1003.90 1001.97 1003.57 1003.98 1003.76 1003.63 1003.60 1003.81 1002.13 1001.01 999.06 996.61 993.01 992.30 992.83 993.35 993.89 992.75 991.89
1017.31 1014.57 1013.15 1013.78 1014.11 1013.76 1012.80 1012.37 1011.96 1011.96 1012.02 1012.27 1012.53 1012.65 1012.03 1011.28 1010.73 1009.86 1009.13 1008.93 1009.89 1011.06 1010.93 1011.08 1009.44 1007.91 1005.55 1003.17 1004.78 1005.15 1003.50 1002.39 1002.36 1001.51 1000.34 1000.13 999.56 999.36 997.62 994.04 993.48 993.83 994.37 993.39 992.17
1017.44 1016.25 1016.79 1014.58 1014.20 1014.26 1014.35 1013.50 1012.58 1012.00 1012.13 1012.37 1012.37 1012.45 1012.28 1011.75 1010.47 1009.71 1009.05 1008.85 1009.25 1010.44 1011.17 1011.23 1009.45 1007.94 1006.00 1004.32 1003.29 1002.43 1001.47 1001.04 1000.31 999.18 998.71 998.63 998.66 998.57 998.62 997.06 994.36 994.11 994.24 993.36 992.52
1018.95 1018.93 1018.00 1017.01 1015.49 1015.32 1015.03 1013.87 1013.47 1012.82 1013.07 1012.79 1012.39 1012.01 1012.25 1011.67 1010.74 1009.33 1009.35 1009.14 1009.64 1009.99 1010.68 1010.38 1009.21 1007.91 1005.81 1004.18 1002.87 1001.53 1000.72 1000.27 999.71 997.65 997.96 997.73 997.31 997.06 996.43 995.88 994.87 994.49 994.23 993.94 993.06
1021.69 1021.54 1020.55 1018.20 1015.53 1014.92 1014.99 1015.37 1015.11 1015.27 1014.27 1013.35 1012.90 1012.47 1011.41 1010.44 1009.63 1008.82 1008.42 1007.97 1008.31 1009.56 1010.49 1010.07 1008.93 1007.87 1005.64 1003.89 1002.44 1000.99 999.67 999.02 998.57 997.28 996.46 996.01 995.87 995.52 995.19 994.76 994.20 994.23 994.26 993.84 993.49
Wind_Speed
16 16 16 16 17 17 17 17 17 17 16 16 17 16 16 17 21 21 9 8 10 13 16 14 15 14 15 21 24 19 18 19 25 23 20 12 13 18 16 17 15 11 13 14 21
16 16 17 17 17 17 18 17 17 17 17 17 17 17 17 16 18 4 9 6 9 14 13 10 14 16 16 18 20 22 19 28 24 21 16 16 15 19 21 12 19 12 3 5 13
16 17 17 17 18 18 18 18 18 17 17 16 17 17 17 16 12 8 12 5 10 14 15 11 13 19 24 21 23 25 29 26 24 24 18 14 18 19 22 16 20 15 12 9 17
17 18 18 18 18 18 18 19 19 19 18 16 15 15 16 15 2 9 7 7 12 12 12 12 12 18 23 26 24 29 32 28 30 29 22 15 16 23 24 22 21 20 20 14 8
17 17 18 18 18 19 19 19 19 19 19 18 16 14 13 10 9 9 7 12 13 7 7 10 14 16 24 23 24 32 29 29 29 24 25 24 20 25 24 25 22 22 9 11 12
17 18 18 19 19 19 19 18 17 18 18 16 13 10 10 9 3 3 6 8 9 9 10 8 11 15 20 23 27 26 28 32 29 28 27 27 28 22 29 23 26 26 25 19 20
17 18 18 19 19 19 19 18 18 19 17 13 11 10 13 8 3 6 6 7 4 9 10 12 10 15 12 17 25 25 28 28 28 26 33 27 27 27 29 28 26 28 25 22 22
19 18 19 19 20 20 20 18 19 18 14 9 6 12 8 4 8 6 11 9 7 6 10 11 13 16 20 20 29 22 21 26 34 27 29 24 36 36 29 28 29 29 26 23 27
20 19 20 20 20 21 21 21 21 9 4 5 9 11 6 9 3 10 10 9 12 13 8 7 14 15 15 17 19 21 26 28 31 29 28 29 36 32 30 31 29 29 28 25 26
20 20 20 21 21 21 21 23 5 7 9 10 10 9 7 5 10 12 7 10 11 11 13 14 13 14 14 14 21 20 26 28 30 28 25 31 35 32 29 28 27 28 29 26 28
22 21 20 21 20 20 18 6 8 10 14 12 10 10 9 9 9 9 5 8 9 12 14 9 14 14 17 16 20 22 27 32 30 23 25 30 30 34 30 28 27 26 24 29 28
24 23 23 21 19 20 13 6 6 7 11 13 11 10 8 6 10 7 3 10 14 14 15 14 16 16 17 20 20 22 25 28 27 29 24 22 26 32 26 28 27 26 28 27 22
24 22 22 19 16 11 6 6 6 7 9 2 5 8 4 5 11 13 7 13 15 17 16 16 17 19 19 16 18 20 22 24 27 24 26 26 29 33 29 29 24 25 27 28 27
23 23 19 16 8 2 3 4 8 5 8 10 8 4 7 7 13 5 12 10 14 18 18 17 16 16 16 20 20 22 19 22 21 22 22 27 24 26 25 27 27 28 26 23 22
25 24 17 8 10 4 7 8 8 6 6 5 4 6 7 11 9 8 5 12 18 19 19 19 21 22 23 22 18 22 21 22 23 23 25 29 24 22 24 25 26 26 27 28 25
25 24 12 7 7 6 6 5 6 9 1 5 2 6 12 13 8 12 10 12 19 21 19 21 10 23 20 23 21 22 18 24 21 20 22 27 27 24 23 26 22 18 20 17 19
26 20 9 9 5 5 7 8 8 8 7 3 6 12 15 15 11 9 12 14 14 12 15 19 20 9 17 16 22 18 18 14 17 18 19 22 25 22 23 28 27 26 24 23 14
28 17 8 7 6 6 8 11 5 5 8 11 10 16 16 3 6 9 15 13 10 6 12 11 16 8 8 16 19 16 18 14 21 16 17 22 25 20 25 28 13 18 16 17 13
32 7 8 3 5 6 9 9 3 8 7 10 14 12 10 9 9 14 8 9 7 10 6 12 11 19 15 10 13 16 18 16 21 25 19 18 28 29 29 23 18 18 12 10 9
9 7 3 2 4 7 10 10 8 1 9 10 13 7 14 15 16 12 12 4 8 10 8 14 19 16 14 9 13 15 15 4 15 23 24 17 23 17 31 28 17 17 6 3 9
7 6 7 1 5 9 6 9 9 6 9 7 10 13 16 13 14 16 9 14 5 10 17 18 15 18 17 14 16 9 12 16 10 12 14 19 10 13 25 31 21 7 5 6 4
7 5 5 2 7 5 7 7 5 7 5 7 10 13 12 13 17 17 18 13 9 12 17 22 11 14 21 16 18 2 11 10 9 8 20 17 19 21 26 27 27 13 6 9 9
7 6 6 3 3 7 10 11 6 9 10 4 7 12 12 17 10 13 17 17 12 16 6 10 8 10 15 17 16 9 12 9 12 8 19 9 7 17 16 17 11 10 11 15 10
6 5 4 3 2 7 11 10 7 4 9 7 10 12 15 15 15 12 19 21 10 10 18 12 14 18 17 22 11 7 20 14 18 11 15 16 16 20 28 4 10 9 10 14 13
1 6 5 6 7 11 10 15 10 10 2 7 9 10 12 13 20 21 19 23 22 16 10 6 13 20 21 24 25 20 19 14 19 22 20 18 17 12 18 22 25 10 12 15 10
7 6 9 12 9 5 8 10 15 8 15 16 16 15 13 17 18 26 22 23 15 7 6 8 9 16 20 22 23 23 21 18 21 27 23 22 22 15 17 19 18 15 14 12 12
3 3 5 9 9 6 3 8 12 13 12 13 18 19 19 19 19 22 22 24 22 7 4 7 8 10 17 19 14 17 19 19 18 24 22 21 19 17 15 16 16 14 14 11 14
Wind_Direction
344 342 339 337 336 333 330 327 323 321 318 317 316 316 316 316 301 266 255 31 354 326 310 272 258 245 231 239 238 228 248 247 250 254 265 266 271 247 265 248 250 231 260 328 141
342 339 337 337 335 333 329 325 321 317 316 316 314 312 313 317 296 257 91 34 330 316 297 278 252 229 229 231 234 229 239 241 248 255 254 259 251 264 243 225 255 216 52 264 150
339 337 336 335 333 331 326 323 318 315 314 315 313 309 309 309 266 76 159 343 304 290 274 280 269 266 235 232 223 230 240 249 251 252 265 257 252 259 263 232 225 210 186 201 189
339 337 335 333 331 328 325 322 320 318 316 315 310 305 303 280 356 75 157 256 278 274 270 261 245 244 243 238 234 236 241 248 256 273 282 257 269 272 270 252 258 215 181 180 192
337 335 334 331 328 326 323 322 320 317 314 311 309 310 295 222 56 118 205 233 273 300 280 278 266 259 247 245 247 243 246 248 254 255 260 266 240 257 256 263 248 264 195 194 214
338 336 333 330 327 325 321 317 315 314 309 303 299 300 256 260 17 302 311 295 280 299 311 278 271 273 281 269 251 255 250 253 254 253 251 247 251 254 252 251 260 247 259 235 239
337 336 333 330 326 323 318 314 314 311 303 295 293 277 273 47 302 319 284 318 285 299 288 304 303 277 272 254 252 265 267 266 257 248 247 251 253 240 251 255 245 251 239 243 249
336 334 333 330 324 320 315 312 306 298 288 273 255 268 286 87 335 315 323 322 307 246 263 282 289 281 272 268 279 278 260 250 243 242 247 242 249 244 248 253 249 247 253 238 235
336 333 332 328 324 320 316 309 303 275 219 205 229 231 243 135 246 343 315 316 311 295 283 261 274 277 267 246 253 245 251 246 254 242 240 234 248 247 250 253 252 240 243 244 244
334 330 329 326 321 317 314 300 311 178 210 206 256 253 224 341 345 316 299 301 296 297 281 237 258 249 241 235 246 254 243 246 253 258 241 231 241 244 244 249 245 257 263 241 237
333 330 325 324 317 312 314 222 207 199 225 290 319 296 290 340 306 300 326 300 268 274 271 276 267 251 269 274 272 276 273 277 278 274 245 251 244 244 245 239 250 255 242 236 250
333 331 325 320 312 306 291 344 35 338 296 279 252 264 272 297 289 326 274 297 305 294 298 276 254 259 259 267 278 278 276 271 274 272 278 277 269 267 251 246 240 245 253 258 255
334 330 324 315 313 284 309 36 331 333 268 171 212 244 261 270 300 300 292 298 285 289 289 281 293 301 292 267 264 265 263 272 279 285 273 262 254 262 255 253 249 245 250 254 253
330 330 322 312 289 351 179 354 302 342 270 127 195 163 226 281 270 319 276 279 283 289 294 287 288 273 279 273 270 267 271 277 274 264 260 253 263 253 248 250 250 246 242 246 253
332 333 326 264 324 272 9 318 331 234 269 100 143 55 255 273 294 284 353 285 280 293 293 288 293 282 274 275 263 269 277 277 268 268 257 254 257 257 250 243 239 239 244 243 241
333 334 331 191 235 27 313 339 245 232 328 160 276 257 292 303 291 285 266 259 258 259 262 272 321 292 288 288 267 272 273 267 260 260 252 248 253 250 246 251 266 260 254 250 245
330 329 284 309 355 345 314 245 243 281 121 104 325 311 311 293 331 311 308 294 289 311 299 315 300 324 295 297 250 247 252 261 249 243 252 249 257 258 258 247 256 249 250 243 250
324 320 203 287 310 313 280 256 286 339 329 1 310 303 280 338 299 289 288 299 342 8 306 317 308 334 1 301 312 255 244 252 269 265 267 238 242 254 253 260 249 295 276 264 250
313 205 237 136 306 292 274 260 302 8 1 323 305 311 318 327 339 296 302 326 331 327 313 308 304 308 302 270 304 278 254 249 264 276 291 264 268 272 240 247 241 243 227 221 239
308 274 196 15 285 278 261 270 295 9 309 302 301 282 317 325 321 316 327 329 302 290 304 295 297 304 294 250 268 251 333 259 231 253 257 256 260 270 211 237 218 219 156 289 272
255 265 90 350 261 249 274 315 332 352 310 294 310 304 299 308 305 312 294 299 306 323 314 295 294 295 278 264 272 218 214 247 179 256 275 258 297 255 210 207 222 215 76 305 309
302 270 87 306 249 217 263 13 322 286 272 267 287 294 303 319 304 297 290 295 306 317 310 300 300 278 280 270 222 235 297 271 246 274 274 268 272 302 284 165 187 83 36 350 53
305 292 119 285 316 329 312 316 272 286 302 297 290 304 312 295 308 297 305 309 338 317 326 342 272 291 283 255 26 3 279 252 262 216 257 271 285 310 97 102 81 61 5 337 356
293 289 147 60 200 291 334 309 322 326 284 330 299 309 286 290 284 283 286 289 338 301 307 316 269 261 272 286 160 218 235 211 219 250 272 265 275 309 310 27 134 71 351 323 334
309 44 10 310 336 329 318 294 293 300 303 285 276 262 309 309 308 297 303 310 305 302 247 255 261 272 274 280 286 288 285 272 271 270 270 277 282 239 275 290 311 348 332 328 335
341 342 353 289 303 333 299 314 315 339 336 309 294 317 312 283 284 294 298 294 292 282 225 205 260 270 275 276 272 270 269 269 263 271 275 281 282 271 255 276 293 298 302 308 321
49 327 312 298 283 287 316 306 319 324 298 312 323 308 297 300 305 299 291 283 279 217 225 266 253 277 276 277 286 276 264 252 257 260 269 272 279 285 281 276 284 288 282 286 287